Weather History for KALI - October, 2013

Change the Weather History Date:

Sunday, October 13, 2013

  Actual Average Record
Temperature  
Mean Temperature 82 °F -  
Max Temperature 91 °F 82 °F 95 °F (2012)
Min Temperature 73 °F 62 °F 57 °F (2001)
Cooling Degree Days 17    
Growing Degree Days 32 (Base 50)    
Moisture  
Dew Point 74 °F    
Average Humidity 80    
Maximum Humidity 100    
Minimum Humidity 53    
Precipitation  
Precipitation 0.00 in - - ()
Sea Level Pressure  
Sea Level Pressure 30.00 in    
Wind  
Wind Speed 7 mph (SE)    
Max Wind Speed 20 mph    
Max Gust Speed 25 mph    
Visibility 10 miles    
Events      
Averages and records for this station are not official NWS values.
T = Trace of Precipitation, MM = Missing Value Source: NWS Daily Summary

Daily Weather History Graph

Daily Weather History Graph

Search for Another Location

Airport or City:

Trip Planner

Search our weather history database for the weather conditions in past years. The results will help you decide how hot, cold, wet, or windy it might be!

Date:

Astronomy

Oct. 13, 2013 Rise Set
Actual Time 7:31 AM CDT 7:04 PM CDT
Civil Twilight 7:07 AM CDT 7:28 PM CDT
Nautical Twilight 6:40 AM CDT 7:55 PM CDT
Astronomical Twilight 6:13 AM CDT 8:22 PM CDT
Moon 3:32 PM CDT (10/13) 2:10 AM CDT (10/13)
Length of Visible Light 12h 20m
Length of Day
11h 33m
Waxing Gibbous, 69% of the Moon is Illuminated
Oct 13
Waxing Gibbous
Oct 18
Full
Oct 26
Last Quarter
Nov 3
New
Nov 9
First Quarter

Hourly Weather History & Observations

Time (CDT) Temp. Heat Index Dew Point Humidity Pressure Visibility Wind Dir Wind Speed Gust Speed Precip Events Conditions
12:53 AM 77.0 °F - 75.0 °F 94% 29.98 in 10.0 mi SSE 4.6 mph - N/A   Partly Cloudy
1:53 AM 77.0 °F - 75.0 °F 94% 29.99 in 10.0 mi SE 4.6 mph - N/A   Partly Cloudy
2:18 AM 77.0 °F - 75.2 °F 94% 29.99 in 10.0 mi SSE 3.5 mph - N/A   Mostly Cloudy
2:53 AM 77.0 °F - 75.0 °F 94% 29.99 in 10.0 mi Calm Calm - N/A   Mostly Cloudy
3:21 AM 77.0 °F - 75.2 °F 94% 29.99 in 10.0 mi South 3.5 mph - N/A   Scattered Clouds
3:53 AM 75.9 °F - 73.9 °F 94% 29.99 in 9.0 mi SSE 3.5 mph - N/A   Scattered Clouds
4:53 AM 75.9 °F - 75.0 °F 97% 29.99 in 8.0 mi Calm Calm - N/A   Clear
5:53 AM 75.0 °F - 73.9 °F 96% 29.99 in 8.0 mi ESE 3.5 mph - N/A   Partly Cloudy
6:30 AM 75.2 °F - 75.2 °F 100% 30.01 in 9.0 mi SSE 3.5 mph - N/A   Mostly Cloudy
6:33 AM 75.2 °F - 75.2 °F 100% 30.01 in 9.0 mi SE 3.5 mph - N/A   Scattered Clouds
6:53 AM 75.9 °F - 75.0 °F 97% 30.01 in 8.0 mi Calm Calm - N/A   Partly Cloudy
7:53 AM 73.9 °F - 73.0 °F 97% 30.04 in 3.0 mi Calm Calm - N/A   Clear
8:53 AM 79.0 °F - 75.9 °F 90% 30.05 in 10.0 mi Calm Calm - N/A   Clear
9:16 AM 80.6 °F 87.1 °F 77.0 °F 89% 30.06 in 10.0 mi SSE 8.1 mph - N/A   Partly Cloudy
9:53 AM 84.0 °F 92.6 °F 75.9 °F 76% 30.07 in 10.0 mi SSE 9.2 mph - N/A   Scattered Clouds
10:53 AM 87.1 °F 95.4 °F 73.9 °F 65% 30.06 in 10.0 mi SSE 13.8 mph - N/A   Scattered Clouds
11:53 AM 89.1 °F 96.0 °F 72.0 °F 57% 30.06 in 10.0 mi South 15.0 mph 19.6 mph N/A   Scattered Clouds
12:53 PM 90.0 °F 97.9 °F 73.0 °F 57% 30.02 in 10.0 mi SSE 9.2 mph 21.9 mph N/A   Partly Cloudy
1:53 PM 91.0 °F 98.2 °F 72.0 °F 53% 29.98 in 10.0 mi SE 13.8 mph 18.4 mph N/A   Scattered Clouds
2:53 PM 90.0 °F 96.9 °F 72.0 °F 55% 29.96 in 10.0 mi SSE 16.1 mph 23.0 mph N/A   Clear
3:53 PM 89.1 °F 96.0 °F 72.0 °F 57% 29.93 in 10.0 mi ESE 15.0 mph 21.9 mph N/A   Scattered Clouds
4:53 PM 88.0 °F 92.9 °F 70.0 °F 55% 29.94 in 10.0 mi SE 18.4 mph 25.3 mph N/A   Partly Cloudy
5:53 PM 86.0 °F 90.1 °F 69.1 °F 57% 29.95 in 10.0 mi SE 19.6 mph 25.3 mph N/A   Clear
6:53 PM 84.0 °F 88.4 °F 70.0 °F 63% 29.97 in 10.0 mi ESE 13.8 mph 24.2 mph N/A   Clear
7:53 PM 82.0 °F 87.4 °F 73.0 °F 74% 29.99 in 10.0 mi ESE 13.8 mph 24.2 mph N/A   Partly Cloudy
8:53 PM 81.0 °F 86.2 °F 73.9 °F 79% 30.01 in 10.0 mi ESE 19.6 mph 25.3 mph N/A   Scattered Clouds
9:04 PM 80.6 °F 86.2 °F 75.2 °F 84% 30.02 in 10.0 mi ESE 15.0 mph 23.0 mph N/A   Mostly Cloudy
9:53 PM 81.0 °F 86.7 °F 75.0 °F 82% 30.03 in 10.0 mi East 12.7 mph - N/A   Mostly Cloudy
10:53 PM 80.1 °F 85.1 °F 75.0 °F 85% 30.02 in 10.0 mi East 10.4 mph - N/A   Partly Cloudy
11:53 PM 80.1 °F 84.2 °F 73.0 °F 79% 30.05 in 10.0 mi East 9.2 mph - N/A   Mostly Cloudy